This is the latest recevied weather packets stored in our database for station/object KE8GJZ-2. If no packets are shown the sender has not sent any weather packets the latest 10 day(s).
| Time | Temp. | Humidity | Pressure | Rain* | Wind** | Luminosity | Snow |
|---|---|---|---|---|---|---|---|
| 1777567963 | 10° C | 55% | 1015.8 hPa | 0 mm | - | 703 W/m² | - |
| 1777567659 | 10° C | 56% | 1015.9 hPa | 0 mm | - | 711 W/m² | - |
| 1777567356 | 9.44° C | 52% | 1016.1 hPa | 0 mm | - | 725 W/m² | - |
| 1777567054 | 10° C | 54% | 1016.1 hPa | 0 mm | - | 755 W/m² | - |
| 1777566752 | 10° C | 54% | 1016 hPa | 0 mm | - | 724 W/m² | - |
| 1777566449 | 10° C | 55% | 1016.2 hPa | 0 mm | - | 647 W/m² | - |
| 1777566147 | 10° C | 66% | 1016.2 hPa | 0 mm | - | 765 W/m² | - |
| 1777565842 | 10.56° C | 56% | 1016.1 hPa | 0 mm | - | 701 W/m² | - |
| 1777565538 | 10° C | 62% | 1016.3 hPa | 0 mm | - | 732 W/m² | - |
| 1777565235 | 10° C | 58% | 1016.2 hPa | 0 mm | - | 734 W/m² | - |
| 1777564931 | 9.44° C | 65% | 1016.3 hPa | 0 mm | - | 764 W/m² | - |
| 1777564626 | 9.44° C | 69% | 1016.3 hPa | 0 mm | - | 694 W/m² | - |
| 1777564322 | 9.44° C | 67% | 1016.4 hPa | 0 mm | - | 412 W/m² | - |
| 1777564019 | 10° C | 68% | 1016.3 hPa | 0 mm | - | 771 W/m² | - |
| 1777563715 | 9.44° C | 71% | 1016.3 hPa | 0 mm | - | 768 W/m² | - |
| 1777563411 | 9.44° C | 69% | 1016.5 hPa | 0 mm | - | 763 W/m² | - |
| 1777563105 | 9.44° C | 68% | 1016.4 hPa | 0 mm | - | 727 W/m² | - |
| 1777562801 | 9.44° C | 72% | 1016.6 hPa | 0 mm | - | 751 W/m² | - |
| 1777562499 | 9.44° C | 76% | 1016.4 hPa | 0 mm | - | 741 W/m² | - |
| 1777562197 | 9.44° C | 74% | 1016.4 hPa | 0 mm | - | 694 W/m² | - |
| 1777561895 | 8.89° C | 73% | 1016.5 hPa | 0 mm | - | 667 W/m² | - |
| 1777561591 | 8.89° C | 70% | 1016.7 hPa | 0 mm | - | 669 W/m² | - |
| 1777561286 | 9.44° C | 68% | 1016.6 hPa | 0 mm | - | 747 W/m² | - |
| 1777560981 | 9.44° C | 75% | 1016.5 hPa | 0 mm | - | 734 W/m² | - |
| 1777560677 | 8.89° C | 76% | 1016.5 hPa | 0 mm | - | 718 W/m² | - |
* Rain latest hour (hover to see other rain measurements)
** Current wind speed in m/s (hover to see current wind gust speed)